• In United Kingdom
  • List of Countries
  • For 7 days
  • Water Temperature
  • Satellite Maps
  • Weather Map
  • Weather Widgets
  • user-avatar
    Login

    Hourly Weather Egilsstaðir

    Today, 24 October, Wednesday

    Time Temperature Precipitation Wind Pressure Humidity
    00:00 -5°C° 0.2 mm 2 mps 655 mmHg 92%
    01:00 -6°C° 0.2 mm 3 mps 655 mmHg 93%
    02:00 -6°C° 0.4 mm 3 mps 655 mmHg 93%
    03:00 -5°C° 0.4 mm 3 mps 656 mmHg 93%
    04:00 -5°C° 0.4 mm 4 mps 656 mmHg 93%
    05:00 -4°C° 0.6 mm 4 mps 656 mmHg 93%
    06:00 -5°C° 0.6 mm 5 mps 656 mmHg 93%
    07:00 -5°C° 0.6 mm 6 mps 656 mmHg 92%
    08:00 -6°C° 0.8 mm 7 mps 656 mmHg 92%
    09:00 -6°C° 0.8 mm 7 mps 656 mmHg 91%
    10:00 -6°C° 0.8 mm 8 mps 657 mmHg 91%
    11:00 -6°C° 0.7 mm 8 mps 657 mmHg 90%
    12:00 -5°C° 0.7 mm 8 mps 657 mmHg 90%
    13:00 -5°C° 0.7 mm 8 mps 657 mmHg 90%
    14:00 -6°C° 0.7 mm 8 mps 657 mmHg 90%
    15:00 -6°C° 0.7 mm 8 mps 657 mmHg 91%
    16:00 -6°C° 0.7 mm 7 mps 656 mmHg 92%
    17:00 -6°C° 0.6 mm 7 mps 656 mmHg 92%
    18:00 -7°C° 0.6 mm 7 mps 656 mmHg 92%
    19:00 -6°C° 0.6 mm 6 mps 656 mmHg 93%
    20:00 -6°C° 0.3 mm 5 mps 655 mmHg 93%
    21:00 -5°C° 0.3 mm 4 mps 655 mmHg 93%
    22:00 -7°C° 0.3 mm 4 mps 655 mmHg 94%
    23:00 -6°C° 0.1 mm 3 mps 654 mmHg 94%

    Tomorrow, 25 October, Thursday

    Time Temperature Precipitation Wind Pressure Humidity
    00:00 -5°C° 0.1 mm 2 mps 654 mmHg 94%
    01:00 -5°C° 0.1 mm 2 mps 654 mmHg 94%
    02:00 -5°C° 0.1 mm 2 mps 654 mmHg 94%
    03:00 -6°C° 0.1 mm 2 mps 654 mmHg 94%
    04:00 -6°C° 0.1 mm 2 mps 654 mmHg 94%
    05:00 -6°C° 0.2 mm 2 mps 654 mmHg 95%
    06:00 -6°C° 0.2 mm 2 mps 654 mmHg 95%
    07:00 -6°C° 0.2 mm 2 mps 654 mmHg 96%
    08:00 -3°C° 0.2 mm 1 mps 655 mmHg 95%
    09:00 -3°C° 0.2 mm 1 mps 655 mmHg 94%
    10:00 -3°C° 0.2 mm 1 mps 655 mmHg 94%
    11:00 -3°C° 0.1 mm 1 mps 656 mmHg 92%
    12:00 -2°C° 0.1 mm 1 mps 656 mmHg 91%
    13:00 -2°C° 0.1 mm 1 mps 656 mmHg 89%
    14:00 -3°C° 0 mm 1 mps 656 mmHg 89%
    15:00 -6°C° 0 mm 1 mps 656 mmHg 89%
    16:00 -7°C° 0 mm 1 mps 656 mmHg 90%
    17:00 -7°C° 0 mm 1 mps 656 mmHg 90%
    18:00 -8°C° 0 mm 1 mps 656 mmHg 90%
    19:00 -8°C° 0 mm 0 mps 656 mmHg 90%
    20:00 -8°C° 0 mm 1 mps 656 mmHg 90%
    21:00 -8°C° 0 mm 1 mps 656 mmHg 90%
    22:00 -9°C° 0 mm 1 mps 656 mmHg 90%
    23:00 -9°C° 0 mm 1 mps 656 mmHg 91%

    Day after tomorrow, 26 October, Friday

    Time Temperature Precipitation Wind Pressure Humidity
    00:00 -9°C° 0 mm 1 mps 656 mmHg 91%
    01:00 -9°C° 0 mm 1 mps 656 mmHg 91%
    02:00 -10°C° 0 mm 1 mps 656 mmHg 91%
    03:00 -10°C° 0 mm 1 mps 656 mmHg 91%
    04:00 -10°C° 0 mm 1 mps 656 mmHg 91%
    05:00 -10°C° 0 mm 1 mps 657 mmHg 91%
    06:00 -10°C° 0 mm 1 mps 657 mmHg 91%
    07:00 -10°C° 0 mm 1 mps 657 mmHg 91%
    08:00 -9°C° 0 mm 1 mps 657 mmHg 90%
    09:00 -9°C° 0 mm 1 mps 657 mmHg 90%
    10:00 -8°C° 0 mm 1 mps 658 mmHg 89%
    11:00 -8°C° 0 mm 1 mps 658 mmHg 88%
    12:00 -8°C° 0 mm 1 mps 658 mmHg 87%
    13:00 -8°C° 0 mm 1 mps 658 mmHg 86%
    14:00 -9°C° 0 mm 1 mps 658 mmHg 87%
    15:00 -9°C° 0 mm 1 mps 658 mmHg 87%
    16:00 -10°C° 0 mm 1 mps 658 mmHg 87%
    17:00 -10°C° 0 mm 1 mps 658 mmHg 87%
    18:00 -11°C° 0 mm 1 mps 658 mmHg 87%
    19:00 -11°C° 0 mm 1 mps 658 mmHg 86%
    20:00 -11°C° 0 mm 1 mps 658 mmHg 86%
    21:00 -11°C° 0 mm 1 mps 659 mmHg 86%
    22:00 -11°C° 0 mm 1 mps 659 mmHg 85%
    23:00 -13°C° 0 mm 2 mps 659 mmHg 85%

    27 October, Saturday

    Time Temperature Precipitation Wind Pressure Humidity
    00:00 -13°C° 0 mm 2 mps 659 mmHg 84%
    01:00 -13°C° 0 mm 2 mps 660 mmHg 84%
    02:00 -13°C° 0 mm 2 mps 660 mmHg 83%
    03:00 -13°C° 0 mm 2 mps 660 mmHg 83%
    04:00 -11°C° 0 mm 1 mps 661 mmHg 82%
    05:00 -11°C° 0 mm 1 mps 661 mmHg 81%
    06:00 -11°C° 0 mm 1 mps 661 mmHg 80%
    07:00 -11°C° 0 mm 1 mps 661 mmHg 79%
    08:00 -11°C° 0 mm 1 mps 662 mmHg 78%
    09:00 -10°C° 0 mm 1 mps 662 mmHg 77%
    10:00 -10°C° 0 mm 1 mps 663 mmHg 76%
    11:00 -9°C° 0 mm 1 mps 663 mmHg 76%
    12:00 -9°C° 0 mm 1 mps 664 mmHg 75%
    13:00 -9°C° 0 mm 1 mps 664 mmHg 75%
    14:00 -9°C° 0 mm 1 mps 664 mmHg 75%
    15:00 -10°C° 0 mm 1 mps 664 mmHg 75%
    16:00 -11°C° 0 mm 1 mps 664 mmHg 75%
    17:00 -11°C° 0 mm 1 mps 664 mmHg 76%
    18:00 -12°C° 0 mm 1 mps 665 mmHg 77%
    19:00 -12°C° 0 mm 1 mps 665 mmHg 78%
    20:00 -12°C° 0 mm 1 mps 665 mmHg 80%
    21:00 -12°C° 0 mm 1 mps 665 mmHg 82%
    22:00 -12°C° 0 mm 1 mps 666 mmHg 84%
    23:00 -12°C° 0 mm 1 mps 666 mmHg 85%

    28 October, Sunday

    Time Temperature Precipitation Wind Pressure Humidity
    00:00 -12°C° 0 mm 1 mps 666 mmHg 86%
    01:00 -12°C° 0 mm 1 mps 667 mmHg 88%
    02:00 -13°C° 0 mm 1 mps 667 mmHg 88%
    03:00 -13°C° 0 mm 1 mps 667 mmHg 88%
    04:00 -13°C° 0 mm 1 mps 668 mmHg 89%
    05:00 -13°C° 0 mm 1 mps 668 mmHg 88%
    06:00 -13°C° 0 mm 1 mps 668 mmHg 88%
    07:00 -13°C° 0 mm 1 mps 668 mmHg 87%
    08:00 -13°C° 0 mm 1 mps 669 mmHg 85%
    09:00 -12°C° 0 mm 1 mps 670 mmHg 82%
    10:00 -12°C° 0 mm 1 mps 670 mmHg 79%
    11:00 -11°C° 0 mm 1 mps 670 mmHg 78%
    12:00 -11°C° 0 mm 1 mps 671 mmHg 77%
    13:00 -10°C° 0 mm 1 mps 671 mmHg 76%
    14:00 -11°C° 0 mm 1 mps 671 mmHg 78%
    15:00 -11°C° 0 mm 1 mps 671 mmHg 79%
    16:00 -12°C° 0 mm 1 mps 671 mmHg 81%
    17:00 -12°C° 0 mm 1 mps 671 mmHg 82%
    18:00 -12°C° 0 mm 1 mps 672 mmHg 82%
    19:00 -12°C° 0 mm 1 mps 672 mmHg 83%
    20:00 -12°C° 0 mm 1 mps 672 mmHg 84%
    21:00 -12°C° 0 mm 1 mps 672 mmHg 85%
    22:00 -12°C° 0 mm 1 mps 672 mmHg 86%
    23:00 -12°C° 0 mm 1 mps 673 mmHg 87%

    29 October, Monday

    Time Temperature Precipitation Wind Pressure Humidity
    00:00 -13°C° 0 mm 1 mps 673 mmHg 87%
    01:00 -13°C° 0 mm 1 mps 673 mmHg 87%
    02:00 -13°C° 0 mm 1 mps 673 mmHg 87%
    03:00 -13°C° 0 mm 1 mps 673 mmHg 87%
    04:00 -13°C° 0 mm 1 mps 673 mmHg 86%
    05:00 -13°C° 0 mm 1 mps 673 mmHg 86%
    06:00 -13°C° 0 mm 1 mps 673 mmHg 85%
    07:00 -13°C° 0 mm 1 mps 673 mmHg 84%
    08:00 -13°C° 0 mm 1 mps 674 mmHg 83%
    09:00 -12°C° 0 mm 1 mps 674 mmHg 83%
    10:00 -12°C° 0 mm 1 mps 675 mmHg 82%
    11:00 -13°C° 0 mm 2 mps 675 mmHg 82%
    12:00 -13°C° 0 mm 2 mps 675 mmHg 82%
    13:00 -13°C° 0 mm 2 mps 675 mmHg 82%
    14:00 -13°C° 0 mm 2 mps 675 mmHg 84%
    15:00 -14°C° 0 mm 2 mps 675 mmHg 85%
    16:00 -15°C° 0 mm 2 mps 674 mmHg 86%
    17:00 -15°C° 0 mm 2 mps 675 mmHg 87%
    18:00 -15°C° 0 mm 2 mps 675 mmHg 88%
    19:00 -16°C° 0 mm 3 mps 675 mmHg 88%
    20:00 -17°C° 0 mm 3 mps 675 mmHg 89%
    21:00 -17°C° 0 mm 3 mps 675 mmHg 89%
    22:00 -17°C° 0 mm 3 mps 676 mmHg 89%
    23:00 -17°C° 0 mm 3 mps 676 mmHg 89%
    Show more